TimeAKDT,TemperatureF,Dew PointF,Humidity,Sea Level PressureIn,VisibilityMPH,Wind Direction,Wind SpeedMPH,Gust SpeedMPH,PrecipitationIn,Events,Conditions,WindDirDegrees,DateUTC
12:16 AM,23.0,19.4,86,30.38,10.0,NW,13.8,19.6,N/A,,Clear,320,2012-10-30 08:16:00
12:56 AM,19.4,15.8,86,30.39,10.0,North,4.6,-,N/A,,Mostly Cloudy,10,2012-10-30 08:56:00
1:16 AM,19.4,17.6,93,30.39,10.0,NNE,4.6,-,N/A,,Mostly Cloudy,30,2012-10-30 09:16:00
1:36 AM,23.0,21.2,93,30.39,10.0,NW,10.4,24.2,N/A,,Partly Cloudy,320,2012-10-30 09:36:00
1:56 AM,23.0,19.4,86,30.40,10.0,NW,11.5,17.3,N/A,,Clear,320,2012-10-30 09:56:00
2:16 AM,21.2,19.4,93,30.41,10.0,North,4.6,-,N/A,,Partly Cloudy,360,2012-10-30 10:16:00
2:36 AM,23.0,19.4,86,30.40,10.0,NW,9.2,-,N/A,,Mostly Cloudy,320,2012-10-30 10:36:00
2:56 AM,23.0,17.6,80,30.40,10.0,NNW,10.4,17.3,N/A,,Mostly Cloudy,330,2012-10-30 10:56:00
3:16 AM,24.8,17.6,74,30.41,10.0,NW,11.5,17.3,N/A,,Mostly Cloudy,310,2012-10-30 11:16:00
3:36 AM,23.0,19.4,86,30.41,10.0,WNW,12.7,16.1,N/A,,Overcast,300,2012-10-30 11:36:00
3:56 AM,24.8,21.2,86,30.40,10.0,WNW,13.8,19.6,N/A,,Overcast,300,2012-10-30 11:56:00
4:16 AM,23.0,19.4,86,30.40,10.0,NW,13.8,20.7,N/A,,Overcast,310,2012-10-30 12:16:00
4:36 AM,24.8,19.4,80,30.40,10.0,NW,15.0,19.6,N/A,,Mostly Cloudy,310,2012-10-30 12:36:00
4:56 AM,23.0,19.4,86,30.39,10.0,NW,16.1,19.6,N/A,,Partly Cloudy,310,2012-10-30 12:56:00
5:16 AM,24.8,21.2,86,30.39,10.0,NW,13.8,21.9,N/A,,Clear,320,2012-10-30 13:16:00
5:36 AM,24.8,21.2,86,30.39,10.0,NW,16.1,19.6,N/A,,Clear,320,2012-10-30 13:36:00
5:56 AM,24.8,19.4,80,30.39,10.0,NW,15.0,20.7,N/A,,Partly Cloudy,310,2012-10-30 13:56:00
6:16 AM,24.8,19.4,80,30.39,10.0,NW,13.8,-,N/A,,Partly Cloudy,310,2012-10-30 14:16:00
6:36 AM,24.8,19.4,80,30.39,10.0,NW,15.0,18.4,N/A,,Clear,310,2012-10-30 14:36:00
6:56 AM,24.8,19.4,80,30.38,10.0,NW,16.1,-,N/A,,Clear,320,2012-10-30 14:56:00
7:16 AM,24.8,19.4,80,30.38,10.0,NW,17.3,24.2,N/A,,Clear,320,2012-10-30 15:16:00
8:16 AM,24.8,21.2,86,30.37,10.0,NW,18.4,25.3,N/A,,Partly Cloudy,320,2012-10-30 16:16:00
8:36 AM,26.6,19.4,74,30.36,10.0,NNW,21.9,28.8,N/A,,Clear,330,2012-10-30 16:36:00
8:56 AM,26.6,19.4,74,30.35,10.0,NNW,21.9,29.9,N/A,,Clear,340,2012-10-30 16:56:00
9:16 AM,26.6,19.4,74,30.36,10.0,NNW,21.9,29.9,N/A,,Mostly Cloudy,340,2012-10-30 17:16:00
9:36 AM,26.6,19.4,74,30.36,10.0,NNW,21.9,29.9,N/A,,Overcast,340,2012-10-30 17:36:00
10:16 AM,26.6,19.4,74,30.38,10.0,North,16.1,-,N/A,,Overcast,350,2012-10-30 18:16:00
10:36 AM,26.6,19.4,74,30.39,10.0,North,13.8,-,N/A,,Mostly Cloudy,350,2012-10-30 18:36:00
10:56 AM,24.8,19.4,80,30.39,10.0,NNW,13.8,20.7,N/A,,Clear,340,2012-10-30 18:56:00
11:16 AM,26.6,19.4,74,30.39,10.0,NNW,16.1,23.0,N/A,,Clear,340,2012-10-30 19:16:00
11:56 AM,24.8,19.4,80,30.40,10.0,North,10.4,-,N/A,,Partly Cloudy,350,2012-10-30 19:56:00
12:16 PM,24.8,19.4,80,30.40,10.0,North,10.4,16.1,N/A,,Clear,350,2012-10-30 20:16:00
12:36 PM,24.8,19.4,80,30.40,10.0,North,10.4,-,N/A,,Clear,350,2012-10-30 20:36:00
12:56 PM,24.8,19.4,80,30.40,10.0,North,11.5,-,N/A,,Clear,360,2012-10-30 20:56:00
1:16 PM,24.8,19.4,80,30.40,10.0,North,11.5,-,N/A,,Clear,360,2012-10-30 21:16:00
1:36 PM,24.8,19.4,80,30.41,10.0,North,10.4,-,N/A,,Clear,360,2012-10-30 21:36:00
1:56 PM,26.6,19.4,74,30.40,10.0,North,8.1,17.3,N/A,,Clear,360,2012-10-30 21:56:00
2:16 PM,26.6,19.4,74,30.40,10.0,North,10.4,16.1,N/A,,Clear,350,2012-10-30 22:16:00
2:36 PM,26.6,17.6,69,30.40,10.0,North,11.5,16.1,N/A,,Clear,350,2012-10-30 22:36:00
2:56 PM,26.6,17.6,69,30.39,10.0,North,12.7,19.6,N/A,,Clear,350,2012-10-30 22:56:00
3:16 PM,26.6,17.6,69,30.39,10.0,North,16.1,21.9,N/A,,Clear,360,2012-10-30 23:16:00
3:36 PM,26.6,17.6,69,30.38,10.0,North,21.9,28.8,N/A,,Clear,10,2012-10-30 23:36:00
3:56 PM,26.6,17.6,69,30.38,10.0,North,19.6,28.8,N/A,,Clear,360,2012-10-30 23:56:00
4:16 PM,26.6,17.6,69,30.38,10.0,North,21.9,27.6,N/A,,Clear,360,2012-10-31 00:16:00
4:36 PM,26.6,15.8,64,30.39,10.0,North,19.6,29.9,N/A,,Clear,360,2012-10-31 00:36:00
4:56 PM,26.6,17.6,69,30.40,10.0,North,16.1,23.0,N/A,,Clear,350,2012-10-31 00:56:00
5:16 PM,26.6,17.6,69,30.39,10.0,North,16.1,23.0,N/A,,Scattered Clouds,350,2012-10-31 01:16:00
5:36 PM,26.6,15.8,64,30.39,10.0,North,17.3,24.2,N/A,,Partly Cloudy,360,2012-10-31 01:36:00
5:56 PM,24.8,17.6,74,30.39,10.0,North,18.4,25.3,N/A,,Clear,360,2012-10-31 01:56:00
6:16 PM,24.8,17.6,74,30.39,10.0,North,18.4,24.2,N/A,,Clear,360,2012-10-31 02:16:00
6:36 PM,24.8,15.8,69,30.39,10.0,North,16.1,-,N/A,,Clear,350,2012-10-31 02:36:00
6:56 PM,24.8,15.8,69,30.39,10.0,North,17.3,-,N/A,,Clear,350,2012-10-31 02:56:00
7:16 PM,24.8,15.8,69,30.40,10.0,NNW,13.8,18.4,N/A,,Clear,340,2012-10-31 03:16:00
7:36 PM,21.2,15.8,80,30.40,10.0,North,11.5,-,N/A,,Clear,360,2012-10-31 03:36:00
7:56 PM,21.2,15.8,80,30.41,10.0,North,12.7,-,N/A,,Clear,350,2012-10-31 03:56:00
8:16 PM,21.2,14.0,74,30.40,10.0,North,15.0,-,N/A,,Clear,360,2012-10-31 04:16:00
8:36 PM,21.2,14.0,74,30.40,10.0,North,17.3,20.7,N/A,,Clear,360,2012-10-31 04:36:00
8:56 PM,21.2,15.8,80,30.40,10.0,North,17.3,23.0,N/A,,Clear,350,2012-10-31 04:56:00
9:16 PM,21.2,15.8,80,30.40,10.0,North,17.3,-,N/A,,Clear,350,2012-10-31 05:16:00
9:36 PM,21.2,15.8,80,30.40,10.0,North,15.0,-,N/A,,Clear,360,2012-10-31 05:36:00
9:56 PM,21.2,15.8,80,30.41,10.0,North,13.8,17.3,N/A,,Clear,350,2012-10-31 05:56:00
10:16 PM,21.2,15.8,80,30.41,10.0,NNW,12.7,-,N/A,,Clear,340,2012-10-31 06:16:00
10:36 PM,21.2,15.8,80,30.40,10.0,North,12.7,-,N/A,,Clear,350,2012-10-31 06:36:00
10:56 PM,21.2,15.8,80,30.41,10.0,North,10.4,-,N/A,,Clear,360,2012-10-31 06:56:00
11:16 PM,21.2,15.8,80,30.40,10.0,North,11.5,17.3,N/A,,Clear,350,2012-10-31 07:16:00
11:56 PM,19.4,14.0,80,30.41,10.0,North,11.5,16.1,N/A,,Clear,350,2012-10-31 07:56:00